CFG256 LOWW-EDDF

Flight info

Callsign CFG256
Flight time N/A
Altitude 34000
Route BUWUT2A/11 BUWUT DCT DITIS DCT RAPET T170 GAPLA/N0363F240 T178 KERAX KERAX5A/25R
Aircraft A20N/M-SDE2E3FGHIRWXY/LB1

Departure

Time N/A
Airport Vienna International Airport (LOWW)

Arrival

Time 2026-05-03 20:20
Airport Frankfurt Main Airport (EDDF)
Time Latitude Longitude Altitude Speed Heading
2026-05-03 20:15 50.10985 8.80042 4178 ft 153 kts 247°
2026-05-03 20:15 50.10608 8.78477 3950 ft 152 kts 247°
2026-05-03 20:15 50.10233 8.76925 3744 ft 153 kts 248°
2026-05-03 20:15 50.09865 8.75394 3525 ft 152 kts 248°
2026-05-03 20:16 50.09516 8.73943 3320 ft 140 kts 248°
2026-05-03 20:16 50.09197 8.72615 3145 ft 121 kts 248°
2026-05-03 20:16 50.08909 8.71422 2972 ft 118 kts 249°
2026-05-03 20:16 50.08623 8.70231 2812 ft 116 kts 248°
2026-05-03 20:17 50.08336 8.69045 2633 ft 119 kts 248°
2026-05-03 20:17 50.08045 8.67851 2493 ft 117 kts 248°
2026-05-03 20:17 50.07752 8.66660 2369 ft 118 kts 247°
2026-05-03 20:17 50.07450 8.65458 2162 ft 120 kts 247°
2026-05-03 20:18 50.07169 8.64229 1916 ft 121 kts 251°
2026-05-03 20:18 50.06929 8.62972 1746 ft 120 kts 251°
2026-05-03 20:18 50.06657 8.61772 1572 ft 120 kts 247°
2026-05-03 20:18 50.06324 8.60561 1405 ft 125 kts 246°
2026-05-03 20:19 50.06005 8.59295 1259 ft 124 kts 248°
2026-05-03 20:19 50.05716 8.58034 1057 ft 122 kts 248°
2026-05-03 20:19 50.05416 8.56795 867 ft 123 kts 247°
2026-05-03 20:19 50.05118 8.55548 731 ft 123 kts 248°
2026-05-03 20:20 50.04817 8.54319 530 ft 121 kts 245°
2026-05-03 20:20 50.04518 8.53107 394 ft 120 kts 246°
2026-05-03 20:20 50.04237 8.51958 334 ft 93 kts 251°
2026-05-03 20:20 50.04113 8.51407 329 ft 34 kts 251°
2026-05-03 20:21 50.04022 8.51111 328 ft 29 kts 237°
2026-05-03 20:21 50.03916 8.50935 325 ft 6 kts 225°
2026-05-03 20:21 50.03879 8.50883 326 ft 8 kts 217°
2026-05-03 20:21 50.03837 8.50842 328 ft 6 kts 205°
2026-05-03 20:22 50.03813 8.50843 332 ft 3 kts 161°
2026-05-03 20:22 50.03783 8.50898 331 ft 13 kts 98°
2026-05-03 20:22 50.03822 8.51079 332 ft 21 kts 69°
2026-05-03 20:22 50.03874 8.51308 332 ft 24 kts 71°
2026-05-03 20:23 50.03933 8.51566 332 ft 26 kts 67°
2026-05-03 20:23 50.04002 8.51836 333 ft 27 kts 70°
2026-05-03 20:23 50.04067 8.52113 339 ft 28 kts 72°
2026-05-03 20:23 50.04133 8.52393 348 ft 28 kts 69°
2026-05-03 20:24 50.04202 8.52675 356 ft 28 kts 69°
2026-05-03 20:24 50.04271 8.52965 356 ft 29 kts 70°
2026-05-03 20:24 50.04336 8.53246 364 ft 25 kts 71°
2026-05-03 20:24 50.04393 8.53482 374 ft 22 kts 79°
2026-05-03 20:25 50.04410 8.53726 375 ft 24 kts 84°
2026-05-03 20:25 50.04428 8.53997 375 ft 26 kts 83°
2026-05-03 20:25 50.04444 8.54243 375 ft 24 kts 84°
2026-05-03 20:25 50.04447 8.54514 367 ft 26 kts 103°
2026-05-03 20:26 50.04344 8.54742 358 ft 27 kts 145°
2026-05-03 20:26 50.04185 8.54845 358 ft 23 kts 160°
2026-05-03 20:26 50.04094 8.54898 357 ft 0 kts 159°
2026-05-03 20:29 50.04068 8.54913 356 ft 9 kts 160°
2026-05-03 20:29 50.04023 8.54962 358 ft 7 kts 121°
2026-05-03 20:29 50.04023 8.55030 358 ft 7 kts 72°
2026-05-03 20:30 50.04049 8.55133 355 ft 13 kts 69°
2026-05-03 20:30 50.04084 8.55278 361 ft 16 kts 70°
2026-05-03 20:30 50.04125 8.55454 356 ft 18 kts 70°
2026-05-03 20:30 50.04148 8.55557 353 ft 6 kts 71°
2026-05-03 20:31 50.04154 8.55614 359 ft 4 kts 107°
2026-05-03 20:31 50.04141 8.55642 360 ft 3 kts 135°
2026-05-03 20:31 50.04121 8.55658 353 ft 4 kts 157°
2026-05-03 20:31 50.04096 8.55672 353 ft 4 kts 159°
2026-05-03 20:32 50.04074 8.55684 356 ft 3 kts 160°
2026-05-03 20:32 50.04073 8.55685 355 ft 0 kts 160°